Temperature
19 18 18 18 18 18 18 18 18 18 18 18 17 17 17 17 17 17 17 16 16 16 16 16 16 16 16 16 16 16 16 16 16 16 15 15 15 15 15 15 15 14 14
18 18 18 18 18 18 18 18 18 18 17 17 17 17 17 17 17 17 17 16 16 16 16 16 16 16 16 16 16 16 16 16 16 15 15 15 15 14 14 14 14 14 13
18 18 18 18 18 18 18 18 18 18 17 17 17 17 17 16 16 16 16 16 16 16 16 16 15 15 15 15 15 15 15 15 15 15 15 14 14 14 14 13 13 13 13
18 18 18 18 18 18 18 18 17 17 17 17 17 17 16 16 16 16 16 16 16 16 15 15 15 15 15 15 15 15 15 15 14 14 14 14 13 13 13 13 13 12 12
18 18 18 18 18 18 17 17 17 17 17 17 16 16 16 16 16 15 15 15 15 15 15 15 15 15 15 14 14 14 14 14 14 13 13 13 13 13 13 12 12 11 11
18 18 17 17 17 17 17 17 17 16 16 16 16 16 16 15 15 15 15 15 15 15 15 14 14 14 14 14 14 14 14 13 13 13 13 12 12 12 12 12 11 11 10
18 18 17 17 17 17 17 17 16 16 16 16 16 15 15 15 15 15 15 15 14 14 14 14 14 14 14 14 14 13 13 13 13 13 13 12 12 12 12 11 11 11 10
17 17 17 17 17 17 17 16 16 16 16 16 15 15 15 15 15 14 14 14 14 14 14 14 14 13 13 13 13 13 13 12 12 12 12 12 12 12 11 11 11 10 10
17 17 17 17 17 16 16 16 16 15 15 15 15 15 15 14 14 14 14 14 14 13 13 13 13 13 13 12 12 12 12 12 11 11 11 11 11 11 11 10 10 10 9
17 17 17 16 16 16 16 16 15 15 15 15 14 14 14 14 14 14 14 13 13 13 13 12 12 12 12 12 12 12 11 11 11 11 11 11 10 10 10 10 10 10 9
17 16 16 16 16 16 15 15 15 15 14 14 14 14 14 14 14 13 13 13 13 13 12 12 12 12 12 11 11 11 11 11 11 10 10 10 10 10 9 9 9 9 9
16 16 16 16 15 15 15 15 14 14 14 14 13 13 13 13 13 13 13 13 12 12 12 12 12 11 11 11 11 11 10 10 10 10 10 9 9 9 9 8 9 8 8
16 16 15 15 15 14 14 14 14 14 14 13 13 13 13 13 12 12 12 12 12 12 12 11 11 11 11 11 10 10 10 10 10 9 9 9 8 8 8 8 8 8 8
16 15 15 14 14 14 14 13 13 13 13 13 13 13 12 12 12 12 12 12 12 11 11 11 11 10 10 10 10 10 9 9 9 9 9 8 8 8 8 8 7 7 7
15 15 14 14 13 13 13 13 13 13 13 13 12 12 12 12 12 12 11 11 11 11 11 10 10 10 10 9 9 9 9 9 9 8 8 8 8 7 7 7 7 7 7
14 14 13 13 13 13 13 12 12 12 12 12 12 12 11 11 11 11 11 11 11 10 10 10 10 9 9 9 9 9 8 8 8 8 8 7 7 7 7 7 7 7 7
14 14 13 13 13 12 12 12 12 11 11 11 11 11 11 11 11 11 10 10 10 10 10 10 9 9 9 9 9 8 8 8 7 7 7 7 7 7 6 6 6 6 6
13 13 13 13 12 12 12 11 11 11 11 10 10 10 10 10 10 10 10 10 9 9 9 9 9 9 8 8 8 8 7 7 7 7 7 6 6 6 6 6 6 6 6
12 12 12 12 12 11 11 11 11 10 10 10 10 10 10 10 10 9 9 9 9 9 9 9 8 8 8 8 7 7 7 6 6 6 6 6 6 6 6 6 6 6 6
12 12 12 12 11 11 11 11 10 10 10 9 9 9 9 9 9 9 9 9 9 8 8 8 8 8 7 7 7 6 6 6 6 6 6 6 6 6 6 6 6 6 6
11 11 11 11 11 10 10 10 10 10 9 9 9 9 9 8 8 8 8 8 8 8 8 8 7 7 7 7 7 6 6 6 6 6 5 5 5 5 5 5 6 6 6
11 10 10 10 10 10 10 10 10 9 9 9 8 8 8 8 8 8 8 8 8 8 8 7 7 7 7 6 6 6 6 6 6 5 5 5 5 5 5 5 6 6 6
10 10 10 10 10 10 9 9 9 9 9 8 8 8 8 8 8 8 8 8 7 7 7 7 7 7 6 6 6 6 6 6 6 5 5 5 5 5 5 5 5 5 6
10 10 10 10 9 9 9 9 9 9 8 8 8 8 8 8 7 7 7 7 7 7 7 7 7 7 6 6 6 6 6 6 5 5 5 5 5 5 5 5 5 5 5
10 10 10 9 9 9 9 9 9 9 8 8 8 8 8 8 7 7 7 7 7 7 7 7 7 6 6 6 6 6 6 5 5 5 5 5 5 5 5 5 5 5 5
10 10 9 9 9 9 9 9 9 9 8 8 8 8 8 8 8 7 7 7 7 7 7 7 6 6 6 6 6 6 6 5 5 5 5 5 5 5 5 5 5 5 5
Wind_Speed
6 5 4 4 4 4 3 3 3 2 2 3 2 2 3 3 3 4 4 4 5 4 4 3 3 2 2 2 2 2 2 2 3 1 1 2 4 5 7 9 9 9 10
6 5 4 3 3 3 3 2 2 2 1 2 2 2 2 2 2 3 4 3 3 3 3 3 3 3 3 3 2 2 2 2 3 3 2 2 3 4 5 5 7 7 8
7 6 4 3 3 2 2 2 2 1 1 1 1 1 1 1 1 1 2 2 2 2 2 3 2 2 2 2 2 2 2 2 2 4 3 2 2 4 4 4 5 5 6
6 5 4 3 3 2 2 2 2 2 2 1 1 1 1 1 1 1 1 1 1 1 1 1 1 2 2 3 2 2 2 2 2 4 4 3 3 3 4 4 3 3 3
6 5 4 4 3 3 3 3 2 2 2 2 2 2 1 1 1 1 1 2 2 2 1 1 0 1 1 1 1 1 2 2 3 4 4 3 3 3 3 3 4 4 3
6 5 5 4 3 3 3 3 3 3 3 3 2 2 2 2 3 3 3 2 3 2 2 2 2 3 4 4 4 5 3 3 3 3 3 4 3 3 3 3 4 4 3
6 6 6 5 4 4 4 4 4 4 3 3 3 3 3 4 5 5 4 3 3 3 3 2 2 3 3 3 5 6 7 6 4 4 4 3 3 3 4 4 4 4 3
6 6 5 5 5 4 4 5 4 4 3 3 3 3 3 4 5 5 5 4 4 3 3 3 3 3 2 4 5 6 6 6 5 4 4 4 3 3 4 4 5 6 5
6 6 5 5 5 5 5 4 4 4 3 3 3 3 3 3 3 3 4 4 4 4 3 4 3 3 4 4 5 6 6 5 10 12 11 10 9 9 7 4 5 5 5
5 5 5 5 5 5 5 5 4 4 3 3 3 3 3 3 3 2 3 3 4 3 3 4 5 5 5 4 5 5 6 5 6 7 8 8 8 8 7 4 4 4 4
6 6 5 5 4 5 4 4 4 4 3 3 3 3 3 3 4 4 3 2 3 3 3 3 4 6 6 5 4 3 5 5 5 6 6 5 5 6 6 7 6 4 4
6 6 5 4 4 4 4 3 3 3 3 3 3 3 3 3 4 4 4 3 3 3 3 4 4 6 6 6 5 6 6 5 4 5 5 5 5 5 5 7 9 9 7
6 5 5 4 3 4 3 3 2 2 2 2 2 2 3 3 4 7 6 5 5 4 4 6 7 7 6 5 6 7 5 3 4 5 5 4 4 4 5 6 7 8 7
6 5 4 4 4 3 2 2 1 1 1 1 1 2 3 3 3 3 3 4 5 5 6 7 7 5 4 5 5 4 3 3 4 4 4 4 4 4 4 4 4 4 4
5 5 4 4 4 4 4 4 3 4 3 1 1 1 1 2 1 1 2 2 3 4 4 4 3 3 3 3 3 3 3 3 3 3 4 5 4 4 3 2 2 2 3
5 4 3 3 4 4 4 5 10 8 8 8 6 5 4 4 3 4 4 5 6 5 4 3 3 3 4 4 4 4 3 3 3 3 4 4 4 3 3 2 2 2 3
4 4 3 3 3 3 4 4 3 5 8 9 8 8 6 5 5 5 5 5 4 4 2 3 3 3 3 3 3 4 4 3 3 3 3 3 3 3 2 2 2 2 2
3 3 3 3 3 3 2 2 3 3 3 3 5 7 6 5 5 4 4 4 3 2 1 3 3 3 3 3 3 3 3 4 3 3 3 3 3 3 2 2 2 1 0
3 2 2 3 3 3 3 2 3 3 4 4 3 3 4 4 4 3 2 1 2 3 3 3 3 4 4 4 4 3 3 3 3 3 3 3 2 2 2 1 1 0 1
3 4 3 3 3 3 3 3 3 3 4 4 3 3 2 2 2 2 1 1 1 2 3 3 4 4 4 4 4 4 4 4 3 3 3 2 1 1 1 1 1 1 1
3 4 3 3 2 3 3 3 3 3 4 4 3 3 3 2 2 3 3 2 1 2 3 4 4 4 4 4 4 4 4 4 3 3 3 2 1 1 1 1 1 1 1
3 3 3 3 3 3 3 3 3 3 4 4 4 4 4 2 2 2 2 2 2 2 3 3 3 3 4 4 4 4 4 4 3 3 3 2 2 2 2 1 1 1 1
4 4 4 3 3 4 3 3 3 3 3 3 4 4 3 2 1 2 2 2 2 2 3 3 3 3 4 4 4 3 2 3 3 3 2 2 2 2 1 1 1 1 1
3 4 4 4 4 3 3 3 3 3 4 4 3 3 3 2 1 2 2 2 3 3 3 3 3 4 6 5 4 4 4 4 4 3 2 1 2 1 1 1 2 2 1
4 4 4 4 3 3 3 3 3 3 3 3 3 3 3 3 2 3 3 3 3 3 4 4 4 5 6 6 5 5 6 6 4 1 2 2 2 2 2 2 3 3 3
5 5 4 3 3 3 3 3 3 3 3 2 3 3 3 3 3 3 3 3 3 3 3 4 5 6 7 7 7 8 9 7 4 2 3 4 3 3 3 3 4 4 4
Wind_Direction
158 166 175 176 183 185 191 202 208 211 206 209 207 205 207 213 217 216 225 221 219 226 230 217 219 238 269 269 245 236 230 199 198 209 93 106 100 102 112 116 120 127 136
161 166 170 167 170 176 183 189 192 189 195 190 195 199 213 218 220 217 228 222 215 223 230 224 225 223 230 252 251 244 230 218 180 170 141 119 111 123 122 123 126 130 132
156 157 153 157 156 162 164 140 124 122 126 130 153 187 211 219 235 228 223 220 220 224 230 228 230 225 239 242 228 228 230 218 164 162 158 137 122 127 121 122 118 122 135
144 143 143 151 151 144 135 130 139 144 135 123 109 86 60 17 347 286 197 189 189 185 209 228 240 221 221 232 228 220 212 193 157 152 147 142 133 137 137 145 136 131 130
138 143 145 147 140 142 139 136 137 135 126 99 89 74 54 40 7 10 116 138 123 99 78 65 28 97 105 167 203 196 188 170 160 158 150 142 145 153 165 168 156 140 111
140 136 133 132 132 130 126 123 110 99 92 90 87 83 68 39 33 67 99 97 98 103 94 78 76 79 93 97 94 87 98 150 168 165 157 150 149 146 148 151 147 148 144
132 128 129 127 122 117 121 112 104 94 83 78 81 83 76 50 60 73 87 99 88 81 76 78 83 83 94 111 101 92 77 78 112 146 146 153 156 165 157 147 139 134 128
132 132 129 125 124 121 113 104 98 92 87 82 77 78 79 61 71 90 93 101 91 81 77 87 88 79 72 106 106 98 82 62 72 101 118 124 123 131 150 153 142 117 95
140 133 130 131 130 122 113 107 105 105 101 95 92 89 85 65 63 99 121 121 110 99 88 75 82 82 72 108 122 114 105 90 75 84 90 96 98 101 108 119 130 137 128
138 129 126 128 126 123 122 119 121 123 119 112 100 96 98 84 65 81 134 141 127 116 103 90 76 72 73 91 117 122 121 113 109 99 93 97 101 101 102 102 136 142 132
131 128 125 123 122 126 126 130 135 132 127 127 116 107 98 84 81 74 84 135 129 119 111 100 82 79 76 75 95 112 126 124 121 116 112 105 95 88 82 74 74 98 104
127 128 129 131 136 129 126 133 139 146 146 138 129 117 103 96 89 79 81 94 97 107 109 109 105 103 91 86 89 99 110 111 119 112 106 103 103 101 92 87 83 81 89
124 121 120 121 110 116 129 134 144 167 167 158 155 142 126 121 111 96 89 88 96 102 99 109 121 122 107 96 98 106 116 120 117 114 114 110 105 111 113 107 100 95 90
129 128 124 119 116 105 93 92 101 75 97 107 93 105 120 121 116 121 123 117 117 118 119 117 118 109 100 103 115 120 110 103 111 116 121 117 113 113 112 119 122 123 108
136 134 135 133 123 101 74 43 54 57 47 57 67 77 106 113 80 76 145 153 146 129 135 144 148 142 130 122 119 108 105 109 105 106 113 118 118 114 116 120 119 114 103
138 139 139 134 128 123 111 78 49 58 63 62 63 81 79 90 97 94 96 104 118 134 139 149 145 142 140 141 141 133 121 113 108 110 112 116 120 122 116 106 102 112 116
139 143 142 136 140 145 141 137 116 70 64 61 62 69 82 91 87 90 94 92 111 130 138 143 135 135 137 136 130 120 114 111 106 105 106 114 114 110 110 104 84 83 94
135 127 130 134 141 138 141 153 148 141 118 74 58 66 77 83 85 87 96 97 116 140 158 133 125 128 122 118 115 109 113 119 114 108 99 99 104 112 113 112 106 79 54
135 127 126 129 133 132 140 143 134 130 123 116 108 78 77 92 87 83 108 139 154 152 144 125 123 123 115 108 105 105 105 107 107 108 107 102 102 109 107 113 121 154 251
115 108 108 128 135 143 148 145 135 131 124 123 128 127 134 138 134 138 155 169 150 131 124 121 113 113 117 121 127 132 131 129 134 137 129 132 133 132 151 164 175 208 228
117 116 114 121 124 127 127 126 122 124 125 125 123 129 144 158 158 155 159 179 180 134 120 122 125 133 138 145 145 151 154 151 153 144 136 141 140 152 201 214 217 217 221
119 124 131 122 111 104 108 116 119 121 124 125 127 137 158 182 161 150 150 144 129 119 124 138 149 150 148 154 161 169 168 154 147 141 145 160 178 203 224 223 231 258 286
118 121 115 108 112 112 117 117 119 125 131 138 139 145 160 174 166 145 135 126 126 136 149 148 149 145 143 152 159 154 152 142 140 139 163 181 206 213 217 226 245 263 270
128 130 129 129 127 133 138 135 134 139 141 143 148 155 159 160 157 139 140 143 156 160 158 161 164 157 152 158 160 147 131 126 139 162 188 224 227 220 226 242 261 266 274
135 131 134 135 139 139 140 142 143 147 148 153 158 159 158 163 177 177 181 182 178 173 174 174 170 168 170 167 158 139 128 126 125 150 221 248 244 246 255 251 258 265 262
136 137 137 139 139 143 150 152 153 154 156 160 164 167 175 184 186 182 186 185 182 171 175 183 183 181 177 172 165 154 151 154 173 227 266 265 258 249 258 265 264 263 263
Height
1530 1532 1534 1536 1537 1538 1540 1541 1542 1543 1544 1544 1545 1546 1547 1548 1549 1549 1550 1551 1552 1553 1553 1554 1554 1555 1555 1556 1557 1558 1559 1560 1560 1561 1563 1564 1565 1565 1566 1567 1567 1568 1569
1530 1531 1533 1534 1535 1536 1538 1539 1540 1541 1541 1542 1543 1543 1544 1545 1546 1546 1546 1547 1548 1548 1549 1550 1550 1550 1551 1551 1552 1553 1554 1555 1556 1557 1558 1559 1561 1561 1562 1563 1564 1565 1566
1529 1530 1532 1533 1534 1535 1536 1537 1538 1539 1539 1540 1540 1541 1542 1542 1543 1543 1543 1544 1544 1545 1545 1545 1546 1546 1546 1547 1547 1549 1550 1551 1552 1553 1554 1555 1557 1558 1559 1560 1560 1561 1562
1528 1529 1530 1532 1533 1534 1534 1535 1536 1537 1537 1538 1539 1539 1540 1540 1540 1540 1541 1541 1541 1541 1541 1541 1542 1542 1542 1543 1543 1545 1546 1547 1548 1548 1550 1551 1552 1554 1555 1555 1556 1557 1559
1527 1529 1530 1531 1531 1532 1533 1534 1535 1535 1536 1537 1537 1537 1538 1538 1538 1538 1538 1539 1538 1538 1538 1539 1539 1539 1539 1539 1540 1541 1542 1543 1544 1545 1546 1548 1549 1550 1550 1552 1553 1554 1556
1527 1528 1529 1530 1531 1531 1532 1533 1534 1534 1535 1535 1536 1536 1536 1536 1536 1536 1536 1537 1537 1536 1536 1536 1537 1537 1537 1537 1538 1538 1539 1540 1541 1542 1544 1545 1546 1547 1548 1549 1551 1552 1553
1527 1528 1529 1530 1530 1531 1532 1532 1533 1533 1534 1534 1534 1534 1534 1534 1534 1535 1535 1535 1535 1535 1535 1535 1535 1535 1535 1535 1536 1536 1537 1538 1540 1541 1541 1542 1544 1545 1546 1547 1549 1550 1551
1526 1528 1529 1530 1530 1531 1531 1532 1532 1533 1533 1533 1533 1533 1533 1533 1534 1534 1534 1533 1533 1533 1534 1534 1534 1534 1534 1534 1534 1534 1535 1536 1537 1538 1539 1541 1542 1543 1545 1546 1547 1548 1549
1526 1527 1528 1529 1530 1530 1531 1531 1532 1532 1532 1532 1532 1533 1533 1533 1533 1533 1533 1533 1533 1533 1533 1533 1533 1533 1533 1533 1533 1533 1534 1535 1537 1538 1539 1540 1541 1542 1543 1544 1545 1546 1547
1525 1526 1528 1529 1529 1529 1530 1530 1531 1531 1532 1532 1532 1532 1532 1532 1533 1533 1533 1533 1532 1532 1532 1532 1533 1533 1533 1533 1533 1534 1534 1535 1536 1537 1538 1539 1540 1541 1542 1543 1544 1544 1546
1524 1526 1527 1528 1529 1529 1530 1530 1530 1531 1531 1531 1532 1532 1532 1532 1532 1532 1532 1532 1532 1532 1532 1532 1532 1533 1533 1533 1533 1534 1534 1535 1536 1537 1538 1539 1539 1540 1541 1542 1543 1544 1545
1523 1525 1526 1527 1528 1529 1529 1529 1530 1530 1530 1531 1531 1531 1531 1531 1531 1531 1531 1532 1532 1532 1532 1532 1532 1533 1533 1533 1534 1534 1535 1536 1537 1537 1538 1538 1539 1540 1541 1542 1543 1544 1545
1522 1524 1525 1526 1527 1527 1528 1528 1529 1529 1530 1530 1530 1530 1530 1530 1530 1530 1530 1530 1531 1531 1531 1532 1532 1533 1533 1533 1534 1535 1535 1536 1537 1537 1538 1539 1539 1540 1541 1542 1543 1544 1545
1521 1523 1524 1525 1525 1526 1527 1527 1528 1528 1528 1529 1529 1529 1528 1528 1528 1528 1529 1530 1530 1530 1531 1531 1532 1532 1533 1533 1534 1535 1535 1536 1536 1537 1538 1539 1540 1541 1542 1542 1543 1544 1545
1520 1522 1523 1524 1525 1525 1525 1526 1526 1527 1527 1527 1527 1527 1527 1526 1527 1527 1528 1528 1529 1529 1530 1530 1531 1531 1532 1533 1533 1534 1535 1536 1536 1537 1538 1539 1540 1541 1542 1543 1544 1545 1546
1519 1520 1521 1523 1523 1523 1524 1524 1525 1525 1526 1526 1525 1525 1525 1525 1525 1526 1526 1527 1527 1528 1529 1529 1530 1531 1531 1532 1533 1533 1534 1535 1536 1537 1538 1539 1540 1541 1542 1543 1545 1546 1547
1518 1519 1520 1521 1522 1522 1522 1523 1523 1524 1524 1524 1524 1524 1524 1524 1524 1524 1524 1525 1525 1526 1527 1528 1529 1529 1530 1531 1532 1533 1533 1534 1536 1537 1538 1539 1540 1541 1542 1544 1545 1546 1547
1517 1518 1518 1519 1520 1520 1521 1522 1522 1522 1522 1522 1522 1522 1522 1523 1523 1523 1523 1524 1524 1525 1526 1527 1528 1528 1529 1530 1531 1532 1533 1534 1535 1536 1537 1539 1540 1541 1542 1544 1545 1546 1548
1515 1516 1517 1518 1518 1519 1519 1520 1520 1521 1521 1521 1521 1521 1521 1522 1522 1522 1523 1523 1523 1524 1525 1526 1527 1528 1528 1529 1530 1531 1532 1534 1535 1536 1537 1539 1540 1541 1543 1544 1545 1546 1547
1514 1515 1516 1516 1517 1517 1518 1518 1519 1519 1520 1520 1520 1520 1521 1521 1521 1522 1522 1523 1523 1524 1525 1525 1526 1527 1528 1529 1530 1531 1532 1534 1535 1536 1538 1539 1540 1542 1543 1544 1545 1546 1547
1513 1514 1514 1515 1516 1516 1516 1517 1517 1518 1518 1519 1520 1520 1520 1521 1521 1522 1522 1523 1523 1524 1525 1525 1526 1527 1528 1528 1529 1531 1532 1533 1535 1536 1538 1539 1540 1542 1543 1544 1545 1545 1546
1512 1513 1514 1515 1515 1515 1516 1516 1517 1517 1518 1519 1519 1520 1520 1521 1522 1522 1523 1523 1524 1524 1524 1525 1526 1527 1527 1528 1529 1530 1532 1533 1534 1536 1537 1539 1540 1541 1542 1543 1544 1544 1545
1512 1512 1513 1514 1515 1515 1516 1516 1517 1517 1518 1519 1519 1520 1520 1521 1522 1522 1523 1523 1524 1524 1525 1525 1526 1527 1528 1529 1529 1530 1532 1533 1534 1535 1536 1538 1539 1540 1541 1542 1543 1543 1544
1512 1513 1513 1514 1515 1515 1516 1516 1517 1518 1519 1519 1520 1520 1521 1521 1522 1523 1523 1524 1524 1524 1525 1525 1526 1527 1527 1528 1529 1530 1531 1532 1533 1535 1536 1537 1538 1539 1540 1541 1541 1542 1542
1512 1513 1514 1514 1515 1516 1517 1517 1518 1519 1519 1520 1520 1521 1522 1522 1523 1523 1523 1524 1524 1524 1525 1525 1526 1526 1527 1528 1528 1529 1530 1531 1532 1534 1535 1536 1537 1537 1538 1539 1539 1540 1540
1513 1514 1514 1515 1516 1517 1517 1518 1519 1519 1520 1520 1521 1521 1522 1522 1523 1523 1524 1524 1524 1524 1524 1525 1525 1525 1526 1526 1527 1528 1529 1530 1531 1532 1533 1534 1535 1535 1536 1537 1537 1537 1537